Location: Gold Fund Mine
(38.3819°N, 119.0996°W)
Time: 17:09:09
(UTC+00:00)

Cosmos 1689 Rocket - Pass Details

Date: 18 September 2020
Orbit: 363 x 378 km, 97.5° (Epoch: 19 October)

Event Time Altitude Azimuth Distance (km) Brightness Sun altitude
Rises 12:36:29 0° 149° (SSE) 2,223 6.2 -13.4°
Reaches altitude 10° 12:38:31 10° 140° (SE) 1,381 5.2 -13.0°
Maximum altitude 12:41:11 33° 74° (ENE) 665 4.1 -12.5°
Drops below altitude 10° 12:43:55 10° 8° (N) 1,400 5.2 -12.0°
Sets 12:45:59 0° 358° (N) 2,260 6.1 -11.6°
